リニア彗星

251P/LINEAR (2024)

English version
Home page
Updated on May 15, 2024

---------------------------------------------------------------------

・ プロフィール

・ 軌道要素

Epoch 2024 Mar. 31.0 TT = JDT 2460400.5
T 2024 Feb. 13.22058 TT                                 Rudenko
q   1.7412654            (2000.0)            P               Q
n   0.14963881     Peri.   31.21877     -0.35980794     +0.89845331
a   3.5137690      Node   219.34156     -0.91680147     -0.39052739
e   0.5044451      Incl.   23.38678     -0.17324352     +0.20067388
P   6.59
>From 418 observations 2004 Apr. 17-2017 Sept. 21, mean residual 0".9.

・ 光度変化

        m1 = 14.2 + 5 logΔ + 15.0 log r(t - 70)

---------------------------------------------------------------------

軌道要素はM.P.E.C. 2024-J304に掲載されたものです。
光度グラフはComet for Windowsで作成したものです。

---------------------------------------------------------------------

Copyright(C) Seiichi Yoshida (comet@aerith.net). All rights reserved.